Kenosha, WI

5:57 PM CST on December 17, 2017 (GMT -0600)
Kenosha Regional

Weather History for KENW - January, 2013

Change the Weather History Date:

Thursday, January 24, 2013

  Actual Average Record
Temperature  
Mean Temperature 11 °F -  
Max Temperature 19 °F 31 °F 58 °F (1967)
Min Temperature 3 °F 16 °F -12 °F (1963)
Degree Days  
Heating Degree Days 54    
Moisture  
Dew Point 1 °F    
Average Humidity 58    
Maximum Humidity 64    
Minimum Humidity 48    
Precipitation  
Precipitation 0.00 in - - ()
Sea Level Pressure  
Sea Level Pressure 30.54 in    
Wind  
Wind Speed 8 mph (WNW)    
Max Wind Speed 13 mph    
Max Gust Speed -    
Visibility 10 miles    
Events      
Averages and records for this station are not official NWS values.
T = Trace of Precipitation, MM = Missing Value Source: NWS Daily Summary

Daily Weather History Graph

Daily Weather History Graph

Search for Another Location

Airport or City:

Trip Planner

Search our weather history database for the weather conditions in past years. The results will help you decide how hot, cold, wet, or windy it might be!

Date:

Astronomy

Jan. 24, 2013 Rise Set
Actual Time 7:13 AM CST 4:55 PM CST
Civil Twilight 6:42 AM CST 5:25 PM CST
Nautical Twilight 6:08 AM CST 5:59 PM CST
Astronomical Twilight 5:34 AM CST 6:33 PM CST
Moon 2:56 PM CST (1/24) 5:11 AM CST (1/24)
Length of Visible Light 10h 43m
Length of Day
9h 42m
Waxing Gibbous, 94% of the Moon is Illuminated
Jan 24
Waxing Gibbous
Jan 26
Full
Feb 3
Last Quarter
Feb 10
New
Feb 17
First Quarter

Hourly Weather History & Observations

Time (CST) Temp. Windchill Dew Point Humidity Pressure Visibility Wind Dir Wind Speed Gust Speed Precip Events Conditions
12:53 AM 7.0 °F -8.3 °F -5.1 °F 58% 30.42 in 10.0 mi NNW 11.5 mph - N/A   Clear
1:53 AM 6.1 °F -9.5 °F -5.1 °F 60% 30.46 in 10.0 mi NNW 11.5 mph - N/A   Clear
2:53 AM 5.0 °F -9.1 °F -6.0 °F 61% 30.49 in 10.0 mi NNW 9.2 mph - N/A   Clear
3:53 AM 3.9 °F -10.4 °F -7.1 °F 60% 30.53 in 10.0 mi NW 9.2 mph - N/A   Clear
4:53 AM 3.9 °F -11.3 °F -7.1 °F 60% 30.56 in 10.0 mi WNW 10.4 mph - N/A   Clear
6:53 AM 3.0 °F -12.5 °F -7.1 °F 63% 30.60 in 10.0 mi NW 10.4 mph - N/A   Clear
7:53 AM 3.0 °F -13.3 °F -7.1 °F 63% 30.62 in 10.0 mi NW 11.5 mph - N/A   Clear
8:53 AM 6.1 °F -10.2 °F -4.0 °F 63% 30.65 in 10.0 mi NNW 12.7 mph - N/A   Clear
9:53 AM 9.0 °F -4.2 °F -0.9 °F 64% 30.66 in 10.0 mi NNW 9.2 mph - N/A   Clear
10:53 AM 12.0 °F 1.5 °F 1.9 °F 64% 30.65 in 10.0 mi NNW 6.9 mph - N/A   Clear
11:53 AM 16.0 °F 5.3 °F 3.9 °F 59% 30.63 in 10.0 mi North 8.1 mph - N/A   Clear
12:53 PM 18.0 °F 11.1 °F 6.1 °F 60% 30.60 in 10.0 mi NNW 4.6 mph - N/A   Clear
1:53 PM 19.0 °F 13.9 °F 5.0 °F 54% 30.58 in 10.0 mi Variable 3.5 mph - N/A   Overcast
2:27 PM 19.4 °F - 3.2 °F 49% 30.52 in 10.0 mi Calm Calm - N/A   Overcast
2:53 PM 19.0 °F - 3.9 °F 52% 30.58 in 10.0 mi Calm Calm - N/A   Overcast
3:53 PM 19.0 °F - 6.1 °F 57% 30.57 in 8.0 mi Calm Calm - 0.00 in   Overcast
4:53 PM 19.0 °F 13.9 °F 7.0 °F 59% 30.55 in 10.0 mi SSW 3.5 mph - N/A   Scattered Clouds
5:53 PM 19.0 °F 13.9 °F 7.0 °F 59% 30.54 in 10.0 mi SSW 3.5 mph - N/A   Partly Cloudy
6:53 PM 19.0 °F - 7.0 °F 59% 30.51 in 10.0 mi Calm Calm - N/A   Mostly Cloudy
7:53 PM 19.0 °F 12.3 °F 7.0 °F 59% 30.48 in 10.0 mi SE 4.6 mph - N/A   Overcast
8:53 PM 19.9 °F 12.1 °F 6.1 °F 55% 30.46 in 10.0 mi SSW 5.8 mph - N/A   Overcast
9:53 PM 19.9 °F 11.1 °F 5.0 °F 52% 30.44 in 10.0 mi South 6.9 mph - N/A   Clear
10:53 PM 19.9 °F 12.1 °F 3.9 °F 50% 30.42 in 10.0 mi South 5.8 mph - N/A   Partly Cloudy
11:53 PM 19.9 °F 10.1 °F 3.0 °F 48% 30.40 in 10.0 mi South 8.1 mph - N/A   Overcast